Regional Weather Roundup
Issued by NWS

Home | Current Version | Previous Version | Graphics & Text | Print | Product List | Glossary On
Versions: 1 2 3 4 5 6 7 8 9 10 11 12 13 14 15 16 17 18 19 20 21 22 23 24 25 26 27 28 29 30 31 32 33 34 35 36 37 38 39 40 41 42 43 44 45 46 47 48 49 50
000
ASUS43 KBIS 291220
RWRND

NORTH DAKOTA REGIONAL WEATHER ROUNDUP
NATIONAL WEATHER SERVICE BISMARCK ND
600 AM CST THU JAN 29 2015

NOTE: "FAIR" INDICATES FEW OR NO CLOUDS BELOW 12,000 FEET WITH NO
SIGNIFICANT WEATHER AND/OR OBSTRUCTIONS TO VISIBILITY.


NDZ001>003-009>011-017-291300-
NORTHWEST NORTH DAKOTA

CITY           SKY/WX    TMP DP  RH WIND       PRES   REMARKS
WILLISTON      CLOUDY    24  19  81 NW12      30.44R WCI  13
6HR MIN TEMP:  23; 6HR MAX TEMP:  31;

MINOT          CLOUDY    24  17  74 NW15G24   30.39R WCI  11
MINOT AFB      CLOUDY    23  22  98 NW15      30.38R WCI  10
$$

NDZ018>021-031>035-040>046-291300-
SOUTHWEST NORTH DAKOTA

CITY           SKY/WX    TMP DP  RH WIND       PRES   REMARKS
BISMARCK       CLOUDY    27  20  75 NW15      30.39R WCI  15
6HR MIN TEMP:  27; 6HR MAX TEMP:  32; 6HR PCP: TRACE;

DICKINSON      MOCLDY    28  21  75 W17       30.35S WCI  16
GARRISON         N/A     25  20  81 NW20      30.37R WCI  11
6HR MIN TEMP:  25; 6HR MAX TEMP:  31;

HETTINGER ARPT CLOUDY    28  22  78 NW12      30.39R WCI  18
$$

NDZ004>008-012>016-024-026-027-054-291300-
NORTHEAST NORTH DAKOTA

CITY           SKY/WX    TMP DP  RH WIND       PRES   REMARKS
GRAND FORKS    CLOUDY    18  12  77 N22G29    30.31R WCI   1
GRND FRKS AFB  CLOUDY    18  10  73 N20G31    30.34R WCI   1
DEVILS LAKE    CLOUDY    19  12  73 NW25      30.33R WCI   2
$$

NDZ022-023-025-028>030-036>039-047>053-291300-
SOUTHEAST NORTH DAKOTA

CITY           SKY/WX    TMP DP  RH WIND       PRES   REMARKS
FARGO          CLOUDY    23  15  71 N23G33    30.29R WCI   7
6HR MIN TEMP:  23; 6HR MAX TEMP:  29; 6HR PCP: TRACE;

JAMESTOWN      CLOUDY    26  22  84 NW23      30.29R WCI  11
$$



USA.gov is the U.S. government's official web portal to all federal, state and local government web resources and services.